Aeroporto :
LOGIN :

Iscrizione | Disclaimer

   EN    FR    IT 

 










Sommario :    VFR   VFR Marginale   IFR   IFR Intensivo   IFR Molto Intensivo
Visibilità : 
Base nubi : 
>= 8 km
>= 3000ft
5 / 8 km
1000 / 3000 ft
1500m / 5 km
500 / 1000 ft
800 / 1500m
200 / 500 ft
< 800m
< 200 ft
Simboli :   Temporali  Nebbia  Neve Forte  Precipitazioni Forti  Vento > 20 kt
SIGMETs :   Varie  Temporali  Ghiacco  Turbolenza  Onda orograficha  Ceneri Vulcaniche







- Altitudine del aeroporto : 11 ft
- Codice IATA : MJV


LELC - Murcia San Javier

ULTIMO METAR :
  • 230630Z 31007KT CAVOK 13/03 Q1008 NOSIG

METARs OBSOLETI :
  • 230600Z 30010KT CAVOK 13/04 Q1008 NOSIG
  • 230530Z AUTO 30016G26KT CAVOK 14/03 Q1008
  • 230500Z AUTO 30013KT 270V330 CAVOK 13/04 Q1008
  • 230430Z AUTO 30015KT CAVOK 12/04 Q1008
  • 230400Z AUTO 28011G21KT 230V330 CAVOK 12/04 Q1008

TAF TAF LELC
Valido dal 23 a 06 ore il 24 a 06 ore UTC


230500Z 2306/2406 29014KT 9999 FEW040 TX18/2315Z TN09/2406Z
PROB40
TEMPO 2306/2316 29018G30KT
BECMG 2317/2320 23009KT
Nessun NOTAM noto per questo aeroporto.



MetMap, La meteo Aeronautica in un colpo d'occhio ! - Copyright ORBIFLY Dicembre 2007 - Disclaimer

ORBIFLY MET'MAP TEAM :

Programmazione e sviluppo : Alexandra Zaïnal
Concezione e sviluppo : Baudouin d'Aumeries
Co-Programmazione e sviluppo : Marc-Olivier Méhu
Supporto tecnico e logistico : Manuel Goepfert
Aiuto per la traduzione : Arnaldo La Scala

Contatto : metmap@orbifly.com




FONTI E CREDITI :

   NOAA